[[{"header":{"parameterUnit":"m.s-1","parameterCategory":1,"la1":30.2991,"la2":30.254,"lo1":-89.0895,"lo2":-89.0444,"dy":0.0017,"dx":0.0017,"nx":28,"ny":28,"refTime":"2023-07-22T21:00:00:Z","depth":0,"parameterNumber":2,"parameterNumberName":"U-component_of_WINDS"},"data":[0,0,0,0,0,0,0,0,0,0,0,0,0,0,0,0,0,0,0,0,0,0,0,0,0,0,0,0,0,0,0,0,0,0,0,0,0,0,0,0,0,0,0,0,0,0,0,0,0,0,0,0,0,0,0,0,0,0,3.2116,3.2117,0,3.2169,3.217,3.217,3.2145,3.2144,3.2143,3.2141,3.2198,3.2201,3.2203,0,0,0,0,0,0,0,0,0,0,0,0,0,3.1997,3.2,3.2116,3.2117,3.2118,3.2169,3.217,3.2171,3.2146,3.2144,3.2142,3.2141,3.2197,3.22,3.2204,0,0,0,0,0,0,0,0,0,0,0,0,0,3.205,3.2,3.2116,3.2111,3.2112,3.2169,3.217,3.2171,3.2146,3.2144,3.2142,3.214,3.2196,3.22,3.2204,3.227,0,0,3.2217,3.2219,0,0,0,0,0,0,0,0,3.2047,3.2054,3.2112,3.2112,3.2112,3.2149,3.2149,3.2204,3.2147,3.2133,3.2141,3.2139,3.2183,3.2188,3.2203,3.2273,3.2275,3.2217,3.222,3.2221,3.2223,0,0,0,0,0,0,0,3.2043,3.2052,3.2137,3.2112,3.2113,3.2108,3.2113,3.2159,3.2169,3.2134,3.2132,3.2139,3.2183,3.2199,3.2204,3.2276,3.2217,3.2221,3.2223,3.2225,3.2405,3.2407,0,0,0,0,0,0,3.2039,3.2049,3.2136,3.2139,3.2074,3.2111,3.2117,3.2139,3.2168,3.2171,3.214,3.2137,3.2193,3.2199,3.2206,3.2286,3.2221,3.2225,3.2228,3.2403,3.2406,3.2408,0,0,0,0,0,0,3.2037,3.2047,3.2134,3.2093,3.2104,3.2116,3.214,3.2141,3.2157,3.2173,3.2175,3.2155,3.2191,3.22,3.2255,3.2288,3.2227,3.2231,3.24,3.2404,3.2407,3.2447,0,0,0,0,0,0,3.2033,3.2046,3.2071,3.2094,3.2106,3.2181,3.2142,3.2144,3.2164,3.216,3.2187,3.2189,3.2191,3.2249,3.2259,3.2293,3.2234,3.2397,3.2402,3.2406,3.2443,3.2452,3.2459,0,0,0,0,0,3.2029,3.208,3.2072,3.2083,3.2137,3.2182,3.219,3.2189,3.2166,3.2192,3.2203,3.2189,3.2283,3.2254,3.2266,3.2301,3.2395,3.24,3.2405,3.2439,3.245,3.2459,0,0,0,0,0,0,3.2061,3.2083,3.2074,3.2134,3.2157,3.2178,3.221,3.22,3.223,3.2225,3.2224,3.2231,3.2288,3.23,3.2268,3.2368,3.2336,3.2343,3.2358,3.2368,3.2376,3.2372,3.2238,0,0,0,0,0,3.2075,3.2109,3.2127,3.2178,3.219,3.2198,3.2218,3.2216,3.2239,3.2249,3.2263,3.2288,3.2323,3.2346,3.2379,3.2445,3.2451,3.2475,3.2483,3.2489,3.2496,3.2534,3.2545,3.2425,3.2425,3.2425,0,0,3.2104,3.212,3.2142,3.2185,3.2202,3.2239,3.2206,3.2246,3.2274,3.2255,3.2307,3.2319,3.2346,3.2407,3.2435,3.2419,3.2531,3.2496,3.2501,3.2505,3.254,3.2552,3.2562,3.2429,3.2428,3.2427,0,0,3.2176,3.2191,3.2236,3.2254,3.228,3.2286,3.2296,3.232,3.2327,3.238,3.2367,3.24,3.246,3.2481,3.2499,3.258,3.2569,3.2591,3.2633,3.267,3.2679,3.2688,3.2718,3.2729,3.2598,3.2598,3.2598,0,3.2209,3.2263,3.226,3.2302,3.2322,3.2306,3.2353,3.2371,3.2407,3.2421,3.2403,3.2479,3.2496,3.2563,3.2583,3.2597,3.2611,3.2588,3.2678,3.2686,3.2694,3.2723,3.2734,3.2601,3.26,3.26,3.26,0,3.2303,3.2341,3.2374,3.2409,3.2433,3.2476,3.2482,3.2507,3.2503,3.2511,3.2566,3.2586,3.2623,3.2639,3.2635,3.2705,3.2695,3.2677,3.2645,3.2708,3.2735,3.2746,3.2604,3.2603,3.2603,3.2602,0,0,3.2395,3.2429,3.2442,3.2458,3.2487,3.2517,3.2561,3.2597,3.2619,3.2644,3.2682,3.2734,3.2718,3.2739,3.2738,3.277,3.2835,3.2749,3.275,3.2765,3.2915,3.2928,3.2941,3.2828,3.283,3.2832,3.2913,0,3.247,3.2546,3.2546,3.2617,3.2653,3.2639,3.2678,3.27,3.2709,3.2742,3.2752,3.2789,3.2765,3.2777,3.2808,3.2821,3.2865,3.2815,3.2864,3.2866,3.2858,3.2955,3.2969,3.3045,3.2924,3.2925,3.2927,0,3.2567,3.2596,3.267,3.2695,3.271,3.2745,3.2779,3.281,3.2836,3.284,3.2864,3.2858,3.2905,3.2871,3.2935,3.2901,3.2921,3.2931,3.2934,3.2939,3.2901,3.2964,3.3069,3.3081,3.2943,3.2942,3.2941,0,3.2629,3.2687,3.2739,3.2753,3.2783,3.2808,3.2822,3.2845,3.2868,3.2898,3.2913,3.2948,3.2968,3.2996,3.3001,3.2975,3.3066,3.3032,3.3072,3.3072,3.3092,3.3091,3.3203,3.3104,3.3104,3.3104,3.3104,0,3.2713,3.2759,3.2767,3.2799,3.2851,3.2852,3.2903,3.2915,3.2937,3.2972,3.2962,3.2996,3.3,3.3035,3.3039,3.3093,3.3102,3.3108,3.3108,3.3109,3.3108,3.3123,3.3118,3.3107,3.3106,3.3106,3.3105,0,3.2791,3.2798,3.2854,3.2878,3.2885,3.2922,3.2943,3.2975,3.2983,3.3028,3.3038,3.3052,3.3093,3.31,3.3148,3.3151,3.3216,3.3211,3.3207,3.3207,3.3246,3.3243,3.3372,3.339,3.3279,3.328,3.3281,0,3.2844,3.288,3.2908,3.293,3.2945,3.2982,3.3005,3.3007,3.3031,3.3064,3.3092,3.3132,3.3164,3.323,3.3245,3.3282,3.3279,3.3322,3.3284,3.3284,3.3281,3.3279,3.3283,3.3329,3.333,3.3331,3.3332,0,3.2939,3.2941,3.2974,3.3009,3.3036,3.3064,3.309,3.3109,3.3115,3.3143,3.3185,3.321,3.3259,3.3299,3.3337,3.3352,3.3344,3.3343,3.3355,3.3356,3.3353,3.3356,3.3227,3.334,3.334,3.3339,3.3339,3.3338,3.3007,3.3038,3.3063,3.3101,3.3121,3.3146,3.3177,3.3189,3.3223,3.3263,3.3263,3.3309,3.3335,3.3385,3.3403,3.3439,3.3426,3.3442,3.3447,3.3451,3.3455,3.3346,3.3446,3.3446,3.3446,3.3446,3.3445,0,3.3102,3.3118,3.3152,3.3189,3.3219,3.3208,3.3236,3.3262,3.3303,3.3328,3.336,3.3408,3.3448,3.3466,3.3505,3.3531,3.3528,3.3541,3.354,3.3544,3.3464,3.3451,3.3543,3.3543,3.3543,3.3543,3.3543,3.3543,3.3155,3.3208,3.3213,3.3276,3.3292,3.3336,3.3354,3.3377,3.3397,3.3452,3.3484,3.3496,3.3519,3.3559,3.3595,3.36,3.3615,3.363,3.3633,3.3559,3.3549,3.354,3.3527,3.3634,3.3634,3.371,3.371,3.3711]},{"header":{"parameterUnit":"m.s-1","parameterCategory":1,"la1":30.2991,"la2":30.254,"lo1":-89.0895,"lo2":-89.0444,"dy":0.0017,"dx":0.0017,"nx":28,"ny":28,"refTime":"2023-07-22T21:00:00:Z","depth":0,"parameterNumber":3,"parameterNumberName":"V-component_of_WINDS"},"data":[0,0,0,0,0,0,0,0,0,0,0,0,0,0,0,0,0,0,0,0,0,0,0,0,0,0,0,0,0,0,0,0,0,0,0,0,0,0,0,0,0,0,0,0,0,0,0,0,0,0,0,0,0,0,0,0,0,0,0.7409,0.7409,0,0.7426,0.7426,0.7426,0.7431,0.7431,0.743,0.743,0.7447,0.7448,0.7449,0,0,0,0,0,0,0,0,0,0,0,0,0,0.7379,0.738,0.7409,0.7409,0.7409,0.7426,0.7426,0.7426,0.7431,0.7431,0.743,0.743,0.7447,0.7448,0.7449,0,0,0,0,0,0,0,0,0,0,0,0,0,0.7394,0.738,0.7409,0.7413,0.7414,0.7426,0.7426,0.7426,0.7431,0.7431,0.743,0.743,0.7447,0.7448,0.7449,0.7457,0,0,0.7451,0.7452,0,0,0,0,0,0,0,0,0.7393,0.7395,0.7413,0.7413,0.7414,0.7426,0.7422,0.7436,0.7431,0.7424,0.743,0.743,0.744,0.7442,0.7445,0.7458,0.7458,0.7451,0.7452,0.7452,0.7452,0,0,0,0,0,0,0,0.7392,0.7394,0.7416,0.7413,0.7414,0.7414,0.7416,0.7425,0.7433,0.7425,0.7425,0.7427,0.7441,0.7444,0.7446,0.7459,0.7451,0.7452,0.7452,0.7453,0.7477,0.7477,0,0,0,0,0,0,0.739,0.7393,0.7415,0.7416,0.7403,0.7415,0.7417,0.7422,0.7433,0.7434,0.7427,0.7427,0.7443,0.7445,0.7446,0.7456,0.7452,0.7453,0.7453,0.7477,0.7477,0.7477,0,0,0,0,0,0,0.739,0.7392,0.7414,0.7405,0.7408,0.7416,0.7421,0.7423,0.7426,0.7435,0.7436,0.743,0.7443,0.7445,0.7454,0.7456,0.7453,0.7454,0.7476,0.7477,0.7477,0.7475,0,0,0,0,0,0,0.7389,0.7392,0.7395,0.7405,0.7408,0.7422,0.7422,0.7423,0.7428,0.7428,0.7437,0.7439,0.7443,0.7453,0.7455,0.7457,0.7455,0.7476,0.7477,0.7477,0.7475,0.7475,0.7475,0,0,0,0,0,0.7388,0.7394,0.7396,0.7398,0.7413,0.7422,0.7424,0.7429,0.7428,0.7431,0.7436,0.7438,0.7456,0.7453,0.7456,0.7459,0.7476,0.7476,0.7477,0.7475,0.7475,0.7475,0,0,0,0,0,0,0.7386,0.7396,0.7397,0.7407,0.7414,0.7423,0.7427,0.7429,0.7436,0.7436,0.7442,0.7444,0.7452,0.7456,0.7453,0.7466,0.7466,0.7467,0.7463,0.7464,0.7464,0.7463,0.7455,0,0,0,0,0,0.7386,0.7393,0.7402,0.741,0.7413,0.7419,0.7424,0.7427,0.7434,0.7436,0.7442,0.7449,0.7455,0.746,0.7467,0.7475,0.7477,0.7478,0.7478,0.7479,0.7479,0.7483,0.7484,0.7478,0.7478,0.7478,0,0,0.7388,0.7394,0.7398,0.7409,0.7415,0.7421,0.7422,0.7429,0.7434,0.7438,0.7446,0.745,0.7458,0.7466,0.747,0.747,0.7481,0.7479,0.7479,0.748,0.7483,0.7484,0.7484,0.7478,0.7478,0.7478,0,0,0.7394,0.74,0.7407,0.7412,0.742,0.7424,0.7425,0.7434,0.7437,0.7445,0.7448,0.7453,0.7465,0.747,0.7474,0.748,0.7482,0.7482,0.7483,0.7487,0.7487,0.7487,0.7489,0.749,0.7482,0.7482,0.7482,0,0.7395,0.7405,0.741,0.7417,0.7421,0.7424,0.7431,0.7435,0.7445,0.7448,0.7447,0.7461,0.7467,0.7476,0.7477,0.748,0.7482,0.7481,0.7487,0.7487,0.7488,0.7489,0.749,0.7482,0.7482,0.7482,0.7482,0,0.7406,0.7412,0.7417,0.7426,0.743,0.7437,0.7442,0.7446,0.7449,0.7453,0.746,0.7467,0.7474,0.7476,0.7479,0.7485,0.7485,0.7486,0.7485,0.7488,0.7489,0.749,0.7482,0.7482,0.7482,0.7482,0,0,0.7412,0.7422,0.7424,0.7427,0.7435,0.744,0.7447,0.7454,0.7457,0.7463,0.7468,0.7477,0.7477,0.7482,0.7485,0.7488,0.7491,0.7488,0.7488,0.7488,0.7498,0.7497,0.7498,0.7492,0.7492,0.7492,0.7497,0,0.7419,0.743,0.7434,0.7443,0.7449,0.7451,0.7456,0.7462,0.7465,0.747,0.7474,0.748,0.748,0.7483,0.7486,0.749,0.7493,0.749,0.7496,0.7497,0.7494,0.7499,0.7498,0.7502,0.7497,0.7498,0.7498,0,0.7429,0.7434,0.7444,0.745,0.7453,0.7457,0.7463,0.7468,0.7474,0.7476,0.748,0.7483,0.7488,0.7487,0.7495,0.7493,0.7495,0.7498,0.7498,0.7499,0.7497,0.7499,0.7504,0.7504,0.7499,0.7499,0.7499,0,0.7431,0.7441,0.7448,0.7451,0.7459,0.7462,0.7465,0.747,0.7474,0.7479,0.7481,0.7487,0.749,0.7494,0.7498,0.7497,0.7505,0.7504,0.7507,0.7506,0.7508,0.7508,0.7513,0.751,0.751,0.751,0.751,0,0.7438,0.7444,0.7449,0.7453,0.7459,0.7463,0.7469,0.7472,0.7477,0.7481,0.7484,0.7488,0.7492,0.7497,0.7499,0.7505,0.7506,0.7508,0.7509,0.7508,0.7507,0.751,0.7509,0.7511,0.751,0.751,0.751,0,0.7443,0.7447,0.7454,0.746,0.7462,0.7466,0.7471,0.7475,0.7478,0.7483,0.7485,0.7489,0.7495,0.7498,0.7505,0.7507,0.7513,0.7514,0.7511,0.7511,0.7513,0.7513,0.7519,0.752,0.7517,0.7517,0.7517,0,0.7447,0.7451,0.7457,0.746,0.7464,0.7469,0.7472,0.7475,0.7479,0.7485,0.7487,0.7493,0.7497,0.7505,0.7509,0.7514,0.7515,0.7517,0.7516,0.7514,0.7514,0.7514,0.7514,0.7517,0.7517,0.7517,0.7517,0,0.7454,0.7455,0.746,0.7465,0.7469,0.7473,0.7477,0.748,0.7484,0.7487,0.7492,0.7496,0.7502,0.7507,0.7512,0.7515,0.7517,0.7517,0.7518,0.7517,0.7515,0.7516,0.7511,0.7517,0.7517,0.7517,0.7517,0.7517,0.7458,0.7461,0.7466,0.7471,0.7474,0.7478,0.7481,0.7484,0.7489,0.7494,0.7496,0.7501,0.7505,0.7512,0.7515,0.7519,0.7519,0.752,0.752,0.752,0.752,0.7514,0.752,0.752,0.752,0.752,0.752,0,0.7464,0.7467,0.7471,0.7477,0.7481,0.7481,0.7486,0.7489,0.7493,0.7497,0.7501,0.7506,0.7511,0.7515,0.7519,0.7521,0.7522,0.7522,0.7522,0.7523,0.752,0.7519,0.7522,0.7522,0.7522,0.7522,0.7522,0.7522,0.7468,0.7474,0.7475,0.7482,0.7485,0.749,0.7492,0.7495,0.7498,0.7504,0.7508,0.751,0.7514,0.7518,0.7522,0.7523,0.7524,0.7525,0.7526,0.7523,0.7523,0.7523,0.7522,0.7525,0.7525,0.7528,0.7528,0.7528]}]]